Year,Month,Day,Hour,Minute,Value (Times are PST for temperature in C)
2011,12,10,00,00,0.80
2011,12,10,00,01,0.80
2011,12,10,00,02,0.80
2011,12,10,00,03,0.80
2011,12,10,00,04,0.80
2011,12,10,00,05,0.80
2011,12,10,00,06,0.80
2011,12,10,00,07,0.80
2011,12,10,00,08,0.90
2011,12,10,00,09,0.90
2011,12,10,00,10,0.90
2011,12,10,00,11,0.80
2011,12,10,00,12,0.90
2011,12,10,00,16,0.90
2011,12,10,00,17,0.90
2011,12,10,00,18,0.80
2011,12,10,00,19,0.80
2011,12,10,00,20,0.80
2011,12,10,00,21,0.70
2011,12,10,00,22,0.70
2011,12,10,00,23,0.70
2011,12,10,00,24,0.70
2011,12,10,00,25,0.60
2011,12,10,00,26,0.60
2011,12,10,00,27,0.60
2011,12,10,00,28,0.60
2011,12,10,00,29,0.60
2011,12,10,00,30,0.60
2011,12,10,00,31,0.50
2011,12,10,00,32,0.50
2011,12,10,00,33,0.40
2011,12,10,00,34,0.40
2011,12,10,00,35,0.40
2011,12,10,00,36,0.40
2011,12,10,00,37,0.40
2011,12,10,00,38,0.40
2011,12,10,00,39,0.40
2011,12,10,00,40,0.40
2011,12,10,00,41,0.40
2011,12,10,00,42,0.40
2011,12,10,00,43,0.40
2011,12,10,00,44,0.40
2011,12,10,00,45,0.40
2011,12,10,00,46,0.40
2011,12,10,00,47,0.40
2011,12,10,00,48,0.40
2011,12,10,00,49,0.40
2011,12,10,00,50,0.40
2011,12,10,00,51,0.40
2011,12,10,00,52,0.40
2011,12,10,00,53,0.40
2011,12,10,00,54,0.30
2011,12,10,00,55,0.30
2011,12,10,00,56,0.30
2011,12,10,00,57,0.30
2011,12,10,00,58,0.20
2011,12,10,00,59,0.20
2011,12,10,01,00,0.20
2011,12,10,01,01,0.20
2011,12,10,01,02,0.20
2011,12,10,01,03,0.20
2011,12,10,01,04,0.20
2011,12,10,01,05,0.20
2011,12,10,01,06,0.20
2011,12,10,01,07,0.20
2011,12,10,01,08,0.20
2011,12,10,01,09,0.20
2011,12,10,01,10,0.10
2011,12,10,01,11,0.10
2011,12,10,01,12,0.10
2011,12,10,01,13,0.10
2011,12,10,01,14,0.10
2011,12,10,01,15,0.20
2011,12,10,01,16,0.20
2011,12,10,01,17,0.20
2011,12,10,01,18,0.20
2011,12,10,01,19,0.20
2011,12,10,01,20,0.30
2011,12,10,01,21,0.30
2011,12,10,01,22,0.30
2011,12,10,01,23,0.30
2011,12,10,01,24,0.30
2011,12,10,01,25,0.30
2011,12,10,01,26,0.30
2011,12,10,01,27,0.30
2011,12,10,01,28,0.30
2011,12,10,01,29,0.30
2011,12,10,01,30,0.30
2011,12,10,01,31,0.30
2011,12,10,01,32,0.40
2011,12,10,01,33,0.40
2011,12,10,01,34,0.40
2011,12,10,01,35,0.40
2011,12,10,01,36,0.40
2011,12,10,01,37,0.40
2011,12,10,01,38,0.40
2011,12,10,01,39,0.40
2011,12,10,01,40,0.40
2011,12,10,01,41,0.40
2011,12,10,01,42,0.40
2011,12,10,01,43,0.50
2011,12,10,01,44,0.50
2011,12,10,01,45,0.50
2011,12,10,01,46,0.50
2011,12,10,01,47,0.60
2011,12,10,01,48,0.60
2011,12,10,01,49,0.60
2011,12,10,01,50,0.60
2011,12,10,01,51,0.60
2011,12,10,01,52,0.60
2011,12,10,01,53,0.60
2011,12,10,01,54,0.60
2011,12,10,01,55,0.60
2011,12,10,01,56,0.60
2011,12,10,01,57,0.60
2011,12,10,01,58,0.60
2011,12,10,01,59,0.60
2011,12,10,02,00,0.60
2011,12,10,02,01,0.60
2011,12,10,02,02,0.60
2011,12,10,02,03,0.60
2011,12,10,02,04,0.60
2011,12,10,02,05,0.60
2011,12,10,02,06,0.60
2011,12,10,02,07,0.60
2011,12,10,02,08,0.60
2011,12,10,02,09,0.60
2011,12,10,02,10,0.60
2011,12,10,02,11,0.60
2011,12,10,02,12,0.60
2011,12,10,02,13,0.60
2011,12,10,02,14,0.70
2011,12,10,02,15,0.70
2011,12,10,02,16,0.70
2011,12,10,02,17,0.70
2011,12,10,02,18,0.70
2011,12,10,02,19,0.70
2011,12,10,02,20,0.70
2011,12,10,02,21,0.70
2011,12,10,02,22,0.70
2011,12,10,02,23,0.70
2011,12,10,02,24,0.70
2011,12,10,02,25,0.70
2011,12,10,02,26,0.70
2011,12,10,02,27,0.70
2011,12,10,02,28,0.70
2011,12,10,02,29,0.80
2011,12,10,02,30,0.80
2011,12,10,02,31,0.80
2011,12,10,02,32,0.80
2011,12,10,02,33,0.80
2011,12,10,02,34,0.70
2011,12,10,02,35,0.70
2011,12,10,02,36,0.70
2011,12,10,02,37,0.70
2011,12,10,02,38,0.70
2011,12,10,02,39,0.70
2011,12,10,02,40,0.70
2011,12,10,02,41,0.70
2011,12,10,02,42,0.70
2011,12,10,02,43,0.70
2011,12,10,02,44,0.70
2011,12,10,02,45,0.70
2011,12,10,02,46,0.70
2011,12,10,02,47,0.70
2011,12,10,02,48,0.70
2011,12,10,02,49,0.70
2011,12,10,02,50,0.70
2011,12,10,02,51,0.70
2011,12,10,02,52,0.70
2011,12,10,02,53,0.70
2011,12,10,02,54,0.70
2011,12,10,02,55,0.70
2011,12,10,02,56,0.70
2011,12,10,02,57,0.60
2011,12,10,02,58,0.60
2011,12,10,02,59,0.60
2011,12,10,03,00,0.60
2011,12,10,03,01,0.60
2011,12,10,03,02,0.60
2011,12,10,03,03,0.60
2011,12,10,03,04,0.60
2011,12,10,03,05,0.60
2011,12,10,03,06,0.60
2011,12,10,03,07,0.60
2011,12,10,03,08,0.60
2011,12,10,03,09,0.60
2011,12,10,03,10,0.60
2011,12,10,03,11,0.60
2011,12,10,03,12,0.60
2011,12,10,03,13,0.70
2011,12,10,03,14,0.70
2011,12,10,03,15,0.70
2011,12,10,03,16,0.70
2011,12,10,03,17,0.70
2011,12,10,03,18,0.70
2011,12,10,03,19,0.70
2011,12,10,03,20,0.70
2011,12,10,03,21,0.70
2011,12,10,03,22,0.70
2011,12,10,03,23,0.70
2011,12,10,03,24,0.70
2011,12,10,03,25,0.70
2011,12,10,03,26,0.70
2011,12,10,03,27,0.70
2011,12,10,03,28,0.70
2011,12,10,03,29,0.80
2011,12,10,03,30,0.70
2011,12,10,03,31,0.70
2011,12,10,03,32,0.70
2011,12,10,03,33,0.70
2011,12,10,03,34,0.70
2011,12,10,03,35,0.70
2011,12,10,03,36,0.70
2011,12,10,03,37,0.70
2011,12,10,03,38,0.70
2011,12,10,03,39,0.70
2011,12,10,03,40,0.70
2011,12,10,03,41,0.70
2011,12,10,03,42,0.70
2011,12,10,03,43,0.80
2011,12,10,03,44,0.80
2011,12,10,03,45,0.80
2011,12,10,03,46,0.80
2011,12,10,03,47,0.80
2011,12,10,03,48,0.80
2011,12,10,03,49,0.80
2011,12,10,03,50,0.80
2011,12,10,03,51,0.80
2011,12,10,03,52,0.90
2011,12,10,03,53,0.90
2011,12,10,03,54,0.90
2011,12,10,03,55,0.90
2011,12,10,03,56,0.90
2011,12,10,03,57,0.90
2011,12,10,03,58,0.90
2011,12,10,03,59,0.90
2011,12,10,04,00,0.90
2011,12,10,04,01,0.90
2011,12,10,04,02,0.90
2011,12,10,04,03,0.90
2011,12,10,04,04,0.90
2011,12,10,04,05,0.90
2011,12,10,04,06,0.90
2011,12,10,04,07,0.90
2011,12,10,04,08,0.90
2011,12,10,04,09,0.90
2011,12,10,04,10,0.90
2011,12,10,04,11,1.00
2011,12,10,04,12,1.00
2011,12,10,04,13,0.90
2011,12,10,04,14,0.90
2011,12,10,04,15,0.90
2011,12,10,04,16,0.90
2011,12,10,04,17,0.90
2011,12,10,04,18,0.90
2011,12,10,04,19,0.90
2011,12,10,04,20,0.90
2011,12,10,04,21,0.90
2011,12,10,04,22,0.90
2011,12,10,04,23,0.90
2011,12,10,04,24,1.00
2011,12,10,04,25,1.00
2011,12,10,04,26,1.00
2011,12,10,04,27,1.00
2011,12,10,04,28,1.10
2011,12,10,04,29,1.10
2011,12,10,04,30,1.10
2011,12,10,04,31,1.10
2011,12,10,04,32,1.10
2011,12,10,04,33,1.10
2011,12,10,04,34,1.20
2011,12,10,04,35,1.20
2011,12,10,04,36,1.20
2011,12,10,04,37,1.20
2011,12,10,04,38,1.20
2011,12,10,04,39,1.20
2011,12,10,04,40,1.30
2011,12,10,04,41,1.30
2011,12,10,04,42,1.30
2011,12,10,04,43,1.30
2011,12,10,04,44,1.30
2011,12,10,04,45,1.30
2011,12,10,04,46,1.30
2011,12,10,04,47,1.30
2011,12,10,04,48,1.30
2011,12,10,04,49,1.30
2011,12,10,04,50,1.30
2011,12,10,04,51,1.30
2011,12,10,04,52,1.30
2011,12,10,04,53,1.30
2011,12,10,04,54,1.30
2011,12,10,04,55,1.30
2011,12,10,04,56,1.30
2011,12,10,04,57,1.30
2011,12,10,04,58,1.30
2011,12,10,04,59,1.30
2011,12,10,05,00,1.30
2011,12,10,05,01,1.30
2011,12,10,05,02,1.30
2011,12,10,05,03,1.30
2011,12,10,05,04,1.30
2011,12,10,05,05,1.30
2011,12,10,05,06,1.30
2011,12,10,05,07,1.30
2011,12,10,05,08,1.30
2011,12,10,05,09,1.30
2011,12,10,05,10,1.30
2011,12,10,05,11,1.30
2011,12,10,05,12,1.30
2011,12,10,05,13,1.30
2011,12,10,05,14,1.30
2011,12,10,05,15,1.30
2011,12,10,05,16,1.30
2011,12,10,05,17,1.30
2011,12,10,05,18,1.30
2011,12,10,05,19,1.30
2011,12,10,05,20,1.30
2011,12,10,05,21,1.30
2011,12,10,05,22,1.30
2011,12,10,05,23,1.30
2011,12,10,05,24,1.30
2011,12,10,05,25,1.30
2011,12,10,05,26,1.30
2011,12,10,05,27,1.30
2011,12,10,05,28,1.30
2011,12,10,05,29,1.30
2011,12,10,05,30,1.30
2011,12,10,05,31,1.30
2011,12,10,05,32,1.30
2011,12,10,05,33,1.30
2011,12,10,05,34,1.30
2011,12,10,05,35,1.30
2011,12,10,05,36,1.30
2011,12,10,05,37,1.30
2011,12,10,05,38,1.30
2011,12,10,05,39,1.30
2011,12,10,05,40,1.30
2011,12,10,05,41,1.30
2011,12,10,05,42,1.30
2011,12,10,05,43,1.30
2011,12,10,05,44,1.30
2011,12,10,05,45,1.30
2011,12,10,05,46,1.30
2011,12,10,05,47,1.30
2011,12,10,05,48,1.30
2011,12,10,05,49,1.30
2011,12,10,05,50,1.30
2011,12,10,05,51,1.30
2011,12,10,05,52,1.30
2011,12,10,05,53,1.30
2011,12,10,05,54,1.30
2011,12,10,05,55,1.30
2011,12,10,05,56,1.30
2011,12,10,05,57,1.30
2011,12,10,05,58,1.30
2011,12,10,05,59,1.30
2011,12,10,06,00,1.30
2011,12,10,06,01,1.30
2011,12,10,06,02,1.30
2011,12,10,06,03,1.30
2011,12,10,06,04,1.30
2011,12,10,06,05,1.30
2011,12,10,06,06,1.30
2011,12,10,06,07,1.30
2011,12,10,06,08,1.30
2011,12,10,06,09,1.30
2011,12,10,06,10,1.30
2011,12,10,06,11,1.30
2011,12,10,06,12,1.30
2011,12,10,06,13,1.30
2011,12,10,06,14,1.30
2011,12,10,06,15,1.30
2011,12,10,06,16,1.30
2011,12,10,06,17,1.30
2011,12,10,06,18,1.30
2011,12,10,06,19,1.30
2011,12,10,06,20,1.30
2011,12,10,06,21,1.30
2011,12,10,06,22,1.30
2011,12,10,06,23,1.30
2011,12,10,06,24,1.30
2011,12,10,06,25,1.30
2011,12,10,06,26,1.30
2011,12,10,06,27,1.30
2011,12,10,06,28,1.30
2011,12,10,06,29,1.30
2011,12,10,06,30,1.30
2011,12,10,06,31,1.40
2011,12,10,06,32,1.40
2011,12,10,06,33,1.40
2011,12,10,06,34,1.40
2011,12,10,06,35,1.40
2011,12,10,06,36,1.40
2011,12,10,06,37,1.40
2011,12,10,06,38,1.40
2011,12,10,06,39,1.40
2011,12,10,06,40,1.40
2011,12,10,06,41,1.40
2011,12,10,06,42,1.40
2011,12,10,06,43,1.40
2011,12,10,06,44,1.50
2011,12,10,06,45,1.40
2011,12,10,06,46,1.40
2011,12,10,06,47,1.40
2011,12,10,06,48,1.40
2011,12,10,06,49,1.40
2011,12,10,06,50,1.40
2011,12,10,06,51,1.40
2011,12,10,06,52,1.40
2011,12,10,06,53,1.40
2011,12,10,06,54,1.30
2011,12,10,06,55,1.30
2011,12,10,06,56,1.30
2011,12,10,06,57,1.30
2011,12,10,06,58,1.30
2011,12,10,06,59,1.30
2011,12,10,07,00,1.30
2011,12,10,07,01,1.30
2011,12,10,07,02,1.30
2011,12,10,07,03,1.30
2011,12,10,07,04,1.30
2011,12,10,07,05,1.30
2011,12,10,07,06,1.30
2011,12,10,07,07,1.30
2011,12,10,07,08,1.30
2011,12,10,07,09,1.30
2011,12,10,07,10,1.30
2011,12,10,07,11,1.30
2011,12,10,07,12,1.20
2011,12,10,07,13,1.20
2011,12,10,07,14,1.20
2011,12,10,07,15,1.20
2011,12,10,07,16,1.20
2011,12,10,07,17,1.20
2011,12,10,07,18,1.20
2011,12,10,07,19,1.10
2011,12,10,07,20,1.10
2011,12,10,07,21,1.10
2011,12,10,07,22,1.10
2011,12,10,07,23,1.10
2011,12,10,07,24,1.10
2011,12,10,07,25,1.10
2011,12,10,07,26,1.10
2011,12,10,07,27,1.10
2011,12,10,07,28,1.10
2011,12,10,07,29,1.10
2011,12,10,07,30,1.10
2011,12,10,07,31,1.10
2011,12,10,07,32,1.20
2011,12,10,07,33,1.20
2011,12,10,07,34,1.20
2011,12,10,07,35,1.20
2011,12,10,07,36,1.10
2011,12,10,07,37,1.10
2011,12,10,07,38,1.00
2011,12,10,07,39,1.00
2011,12,10,07,40,0.90
2011,12,10,07,41,0.90
2011,12,10,07,42,0.90
2011,12,10,07,43,0.90
2011,12,10,07,44,0.80
2011,12,10,07,45,0.80
2011,12,10,07,46,0.80
2011,12,10,07,47,0.80
2011,12,10,07,48,0.80
2011,12,10,07,49,0.80
2011,12,10,07,50,0.70
2011,12,10,07,51,0.70
2011,12,10,07,52,0.70
2011,12,10,07,53,0.70
2011,12,10,07,54,0.70
2011,12,10,07,55,0.70
2011,12,10,07,56,0.60
2011,12,10,07,57,0.60
2011,12,10,07,58,0.60
2011,12,10,07,59,0.60
2011,12,10,08,00,0.60
2011,12,10,08,01,0.60
2011,12,10,08,02,0.60
2011,12,10,08,03,0.60
2011,12,10,08,04,0.60
2011,12,10,08,05,0.70
2011,12,10,08,06,0.70
2011,12,10,08,07,0.70
2011,12,10,08,08,0.70
2011,12,10,08,09,0.70
2011,12,10,08,10,0.70
2011,12,10,08,11,0.70
2011,12,10,08,12,0.70
2011,12,10,08,13,0.70
2011,12,10,08,14,0.70
2011,12,10,08,15,0.80
2011,12,10,08,16,0.80
2011,12,10,08,17,0.80
2011,12,10,08,18,0.80
2011,12,10,08,19,0.70
2011,12,10,08,20,0.70
2011,12,10,08,21,0.70
2011,12,10,08,22,0.70
2011,12,10,08,23,0.70
2011,12,10,08,24,0.80
2011,12,10,08,25,0.80
2011,12,10,08,26,0.90
2011,12,10,08,27,0.90
2011,12,10,08,28,1.00
2011,12,10,08,29,1.00
2011,12,10,08,30,1.10
2011,12,10,08,31,1.10
2011,12,10,08,32,1.20
2011,12,10,08,33,1.20
2011,12,10,08,34,1.30
2011,12,10,08,35,1.30
2011,12,10,08,36,1.30
2011,12,10,08,37,1.30
2011,12,10,08,38,1.30
2011,12,10,08,39,1.40
2011,12,10,08,40,1.50
2011,12,10,08,41,1.50
2011,12,10,08,42,1.60
2011,12,10,08,43,1.70
2011,12,10,08,44,1.70
2011,12,10,08,45,1.80
2011,12,10,08,46,1.70
2011,12,10,08,47,1.60
2011,12,10,08,48,1.60
2011,12,10,08,49,1.50
2011,12,10,08,50,1.30
2011,12,10,08,51,1.30
2011,12,10,08,52,1.30
2011,12,10,08,53,1.30
2011,12,10,08,54,1.20
2011,12,10,08,55,1.20
2011,12,10,08,56,1.20
2011,12,10,08,57,1.20
2011,12,10,08,58,1.20
2011,12,10,08,59,1.20
2011,12,10,09,00,1.20
2011,12,10,09,01,1.20
2011,12,10,09,02,1.20
2011,12,10,09,03,1.20
2011,12,10,09,04,1.30
2011,12,10,09,05,1.30
2011,12,10,09,06,1.30
2011,12,10,09,07,1.30
2011,12,10,09,08,1.30
2011,12,10,09,09,1.30
2011,12,10,09,10,1.30
2011,12,10,09,11,1.40
2011,12,10,09,12,1.40
2011,12,10,09,13,1.50
2011,12,10,09,14,1.50
2011,12,10,09,15,1.50
2011,12,10,09,16,1.60
2011,12,10,09,17,1.60
2011,12,10,09,18,1.60
2011,12,10,09,19,1.60
2011,12,10,09,20,1.60
2011,12,10,09,21,1.70
2011,12,10,09,22,1.70
2011,12,10,09,23,1.70
2011,12,10,09,24,1.70
2011,12,10,09,25,1.80
2011,12,10,09,26,1.80
2011,12,10,09,27,1.80
2011,12,10,09,28,1.90
2011,12,10,09,29,1.90
2011,12,10,09,30,2.00
2011,12,10,09,31,2.10
2011,12,10,09,32,2.10
2011,12,10,09,33,2.20
2011,12,10,09,34,2.20
2011,12,10,09,35,2.30
2011,12,10,09,36,2.30
2011,12,10,09,37,2.30
2011,12,10,09,38,2.40
2011,12,10,09,39,2.50
2011,12,10,09,40,2.60
2011,12,10,09,41,2.70
2011,12,10,09,42,2.80
2011,12,10,09,43,2.90
2011,12,10,09,44,3.00
2011,12,10,09,45,3.10
2011,12,10,09,46,3.20
2011,12,10,09,47,3.20
2011,12,10,09,48,3.20
2011,12,10,09,49,3.20
2011,12,10,09,50,3.30
2011,12,10,09,51,3.30
2011,12,10,09,52,3.30
2011,12,10,09,53,3.30
2011,12,10,09,54,3.30
2011,12,10,09,55,3.30
2011,12,10,09,56,3.30
2011,12,10,09,57,3.30
2011,12,10,09,58,3.30
2011,12,10,09,59,3.30
2011,12,10,10,00,3.30
2011,12,10,10,01,3.30
2011,12,10,10,02,3.30
2011,12,10,10,03,3.30
2011,12,10,10,04,3.30
2011,12,10,10,05,3.30
2011,12,10,10,06,3.30
2011,12,10,10,07,3.30
2011,12,10,10,08,3.20
2011,12,10,10,09,3.20
2011,12,10,10,10,3.10
2011,12,10,10,11,3.10
2011,12,10,10,12,3.00
2011,12,10,10,13,3.00
2011,12,10,10,14,3.00
2011,12,10,10,15,3.10
2011,12,10,10,16,3.10
2011,12,10,10,17,3.10
2011,12,10,10,18,3.10
2011,12,10,10,19,3.10
2011,12,10,10,20,3.10
2011,12,10,10,21,3.10
2011,12,10,10,22,3.10
2011,12,10,10,23,3.10
2011,12,10,10,24,3.10
2011,12,10,10,25,3.00
2011,12,10,10,26,3.00
2011,12,10,10,27,3.00
2011,12,10,10,28,3.00
2011,12,10,10,29,2.90
2011,12,10,10,30,3.00
2011,12,10,10,31,3.00
2011,12,10,10,32,3.00
2011,12,10,10,33,3.00
2011,12,10,10,34,3.00
2011,12,10,10,35,3.00
2011,12,10,10,36,3.00
2011,12,10,10,37,3.00
2011,12,10,10,38,3.00
2011,12,10,10,39,3.00
2011,12,10,10,40,2.90
2011,12,10,10,41,2.90
2011,12,10,10,42,2.90
2011,12,10,10,43,2.90
2011,12,10,10,44,2.90
2011,12,10,10,45,2.90
2011,12,10,10,46,2.80
2011,12,10,10,47,2.80
2011,12,10,10,48,2.80
2011,12,10,10,49,2.80
2011,12,10,10,50,2.80
2011,12,10,10,51,2.80
2011,12,10,10,52,2.80
2011,12,10,10,53,2.80
2011,12,10,10,54,2.80
2011,12,10,10,55,2.80
2011,12,10,10,56,2.80
2011,12,10,10,57,2.80
2011,12,10,10,58,2.80
2011,12,10,10,59,2.80
2011,12,10,11,00,2.80
2011,12,10,11,01,2.80
2011,12,10,11,02,2.80
2011,12,10,11,03,2.80
2011,12,10,11,04,2.80
2011,12,10,11,05,2.80
2011,12,10,11,06,2.80
2011,12,10,11,07,2.80
2011,12,10,11,08,2.80
2011,12,10,11,09,2.80
2011,12,10,11,10,2.80
2011,12,10,11,11,2.80
2011,12,10,11,12,2.80
2011,12,10,11,13,2.80
2011,12,10,11,14,2.80
2011,12,10,11,15,2.80
2011,12,10,11,16,2.80
2011,12,10,11,17,2.80
2011,12,10,11,18,2.80
2011,12,10,11,19,2.80
2011,12,10,11,20,2.80
2011,12,10,11,21,2.80
2011,12,10,11,22,2.80
2011,12,10,11,23,2.80
2011,12,10,11,24,2.80
2011,12,10,11,25,2.80
2011,12,10,11,26,2.80
2011,12,10,11,27,2.80
2011,12,10,11,28,2.80
2011,12,10,11,29,2.80
2011,12,10,11,30,2.80
2011,12,10,11,31,2.80
2011,12,10,11,32,2.80
2011,12,10,11,33,2.80
2011,12,10,11,34,2.80
2011,12,10,11,35,2.80
2011,12,10,11,36,2.80
2011,12,10,11,37,2.80
2011,12,10,11,38,2.80
2011,12,10,11,39,2.90
2011,12,10,11,40,2.90
2011,12,10,11,41,2.90
2011,12,10,11,42,2.90
2011,12,10,11,43,2.90
2011,12,10,11,44,2.90
2011,12,10,11,45,3.00
2011,12,10,11,46,3.00
2011,12,10,11,47,3.10
2011,12,10,11,48,3.10
2011,12,10,11,49,3.10
2011,12,10,11,50,3.10
2011,12,10,11,51,3.10
2011,12,10,11,52,3.10
2011,12,10,11,53,3.10
2011,12,10,11,54,3.10
2011,12,10,11,55,3.10
2011,12,10,11,56,3.10
2011,12,10,11,57,3.10
2011,12,10,11,58,3.10
2011,12,10,11,59,3.10
2011,12,10,12,00,3.10
2011,12,10,12,01,3.10
2011,12,10,12,02,3.00
2011,12,10,12,03,3.00
2011,12,10,12,04,3.00
2011,12,10,12,05,2.90
2011,12,10,12,06,2.90
2011,12,10,12,07,2.90
2011,12,10,12,08,2.90
2011,12,10,12,09,2.90
2011,12,10,12,10,2.90
2011,12,10,12,11,2.90
2011,12,10,12,12,2.90
2011,12,10,12,13,2.90
2011,12,10,12,14,2.90
2011,12,10,12,15,2.90
2011,12,10,12,16,2.90
2011,12,10,12,17,2.90
2011,12,10,12,18,2.90
2011,12,10,12,19,3.00
2011,12,10,12,20,3.00
2011,12,10,12,21,3.00
2011,12,10,12,22,3.00
2011,12,10,12,23,3.00
2011,12,10,12,24,3.00
2011,12,10,12,25,3.00
2011,12,10,12,26,3.00
2011,12,10,12,27,3.10
2011,12,10,12,28,3.10
2011,12,10,12,29,3.10
2011,12,10,12,30,3.10
2011,12,10,12,31,3.10
2011,12,10,12,32,3.10
2011,12,10,12,33,3.10
2011,12,10,12,34,3.10
2011,12,10,12,35,3.10
2011,12,10,12,36,3.10
2011,12,10,12,37,3.10
2011,12,10,12,38,3.10
2011,12,10,12,39,3.10
2011,12,10,12,40,3.10
2011,12,10,12,41,3.10
2011,12,10,12,42,3.10
2011,12,10,12,43,3.10
2011,12,10,12,44,3.10
2011,12,10,12,45,3.10
2011,12,10,12,46,3.10
2011,12,10,12,47,3.10
2011,12,10,12,48,3.10
2011,12,10,12,49,3.10
2011,12,10,12,50,3.10
2011,12,10,12,51,3.20
2011,12,10,12,52,3.20
2011,12,10,12,53,3.20
2011,12,10,12,54,3.20
2011,12,10,12,55,3.20
2011,12,10,12,56,3.20
2011,12,10,12,57,3.20
2011,12,10,12,58,3.20
2011,12,10,12,59,3.20
2011,12,10,13,00,3.30
2011,12,10,13,01,3.30
2011,12,10,13,02,3.30
2011,12,10,13,03,3.30
2011,12,10,13,04,3.30
2011,12,10,13,05,3.30
2011,12,10,13,06,3.30
2011,12,10,13,07,3.30
2011,12,10,13,08,3.30
2011,12,10,13,09,3.30
2011,12,10,13,10,3.30
2011,12,10,13,11,3.30
2011,12,10,13,12,3.30
2011,12,10,13,13,3.30
2011,12,10,13,14,3.30
2011,12,10,13,15,3.30
2011,12,10,13,16,3.30
2011,12,10,13,17,3.30
2011,12,10,13,18,3.30
2011,12,10,13,19,3.30
2011,12,10,13,20,3.30
2011,12,10,13,21,3.30
2011,12,10,13,22,3.30
2011,12,10,13,23,3.30
2011,12,10,13,24,3.30
2011,12,10,13,25,3.30
2011,12,10,13,26,3.30
2011,12,10,13,27,3.30
2011,12,10,13,28,3.30
2011,12,10,13,29,3.40
2011,12,10,13,30,3.40
2011,12,10,13,31,3.40
2011,12,10,13,32,3.40
2011,12,10,13,33,3.40
2011,12,10,13,34,3.40
2011,12,10,13,35,3.40
2011,12,10,13,36,3.40
2011,12,10,13,37,3.40
2011,12,10,13,38,3.40
2011,12,10,13,39,3.40
2011,12,10,13,40,3.40
2011,12,10,13,41,3.40
2011,12,10,13,42,3.40
2011,12,10,13,43,3.50
2011,12,10,13,44,3.40
2011,12,10,13,45,3.40
2011,12,10,13,46,3.40
2011,12,10,13,47,3.40
2011,12,10,13,48,3.40
2011,12,10,13,49,3.30
2011,12,10,13,50,3.30
2011,12,10,13,51,3.30
2011,12,10,13,52,3.30
2011,12,10,13,53,3.30
2011,12,10,13,54,3.30
2011,12,10,13,55,3.30
2011,12,10,13,56,3.30
2011,12,10,13,57,3.30
2011,12,10,13,58,3.30
2011,12,10,13,59,3.30
2011,12,10,14,00,3.30
2011,12,10,14,01,3.30
2011,12,10,14,02,3.30
2011,12,10,14,03,3.30
2011,12,10,14,04,3.30
2011,12,10,14,05,3.30
2011,12,10,14,06,3.30
2011,12,10,14,07,3.30
2011,12,10,14,08,3.30
2011,12,10,14,09,3.30
2011,12,10,14,10,3.30
2011,12,10,14,11,3.30
2011,12,10,14,12,3.30
2011,12,10,14,13,3.30
2011,12,10,14,14,3.30
2011,12,10,14,15,3.30
2011,12,10,14,16,3.30
2011,12,10,14,17,3.30
2011,12,10,14,18,3.20
2011,12,10,14,19,3.20
2011,12,10,14,20,3.20
2011,12,10,14,21,3.20
2011,12,10,14,22,3.20
2011,12,10,14,23,3.20
2011,12,10,14,24,3.20
2011,12,10,14,25,3.20
2011,12,10,14,26,3.20
2011,12,10,14,27,3.20
2011,12,10,14,28,3.20
2011,12,10,14,29,3.20
2011,12,10,14,30,3.20
2011,12,10,14,31,3.20
2011,12,10,14,32,3.20
2011,12,10,14,33,3.20
2011,12,10,14,34,3.20
2011,12,10,14,35,3.20
2011,12,10,14,36,3.30
2011,12,10,14,37,3.30
2011,12,10,14,38,3.30
2011,12,10,14,39,3.30
2011,12,10,14,40,3.30
2011,12,10,14,41,3.30
2011,12,10,14,42,3.30
2011,12,10,14,43,3.30
2011,12,10,14,44,3.30
2011,12,10,14,45,3.30
2011,12,10,14,46,3.30
2011,12,10,14,47,3.30
2011,12,10,14,48,3.30
2011,12,10,14,49,3.20
2011,12,10,14,50,3.20
2011,12,10,14,51,3.20
2011,12,10,14,52,3.20
2011,12,10,14,53,3.20
2011,12,10,14,54,3.20
2011,12,10,14,55,3.20
2011,12,10,14,56,3.20
2011,12,10,14,57,3.20
2011,12,10,14,58,3.20
2011,12,10,14,59,3.20
2011,12,10,15,00,3.20
2011,12,10,15,01,3.20
2011,12,10,15,02,3.20
2011,12,10,15,03,3.20
2011,12,10,15,04,3.20
2011,12,10,15,05,3.20
2011,12,10,15,06,3.20
2011,12,10,15,07,3.30
2011,12,10,15,08,3.30
2011,12,10,15,09,3.30
2011,12,10,15,10,3.30
2011,12,10,15,11,3.30
2011,12,10,15,12,3.30
2011,12,10,15,13,3.30
2011,12,10,15,14,3.30
2011,12,10,15,15,3.30
2011,12,10,15,16,3.30
2011,12,10,15,17,3.30
2011,12,10,15,18,3.30
2011,12,10,15,19,3.30
2011,12,10,15,20,3.30
2011,12,10,15,21,3.30
2011,12,10,15,22,3.30
2011,12,10,15,23,3.30
2011,12,10,15,24,3.30
2011,12,10,15,25,3.30
2011,12,10,15,26,3.30
2011,12,10,15,27,3.30
2011,12,10,15,28,3.30
2011,12,10,15,29,3.30
2011,12,10,15,30,3.30
2011,12,10,15,31,3.40
2011,12,10,15,32,3.40
2011,12,10,15,33,3.40
2011,12,10,15,34,3.40
2011,12,10,15,35,3.40
2011,12,10,15,36,3.40
2011,12,10,15,37,3.40
2011,12,10,15,38,3.40
2011,12,10,15,39,3.40
2011,12,10,15,40,3.40
2011,12,10,15,41,3.40
2011,12,10,15,42,3.40
2011,12,10,15,43,3.40
2011,12,10,15,44,3.40
2011,12,10,15,45,3.40
2011,12,10,15,46,3.40
2011,12,10,15,47,3.40
2011,12,10,15,48,3.40
2011,12,10,15,49,3.40
2011,12,10,15,50,3.40
2011,12,10,15,51,3.40
2011,12,10,15,52,3.50
2011,12,10,15,53,3.50
2011,12,10,15,54,3.50
2011,12,10,15,55,3.50
2011,12,10,15,56,3.50
2011,12,10,15,57,3.50
2011,12,10,15,58,3.50
2011,12,10,15,59,3.50
2011,12,10,16,00,3.50
2011,12,10,16,01,3.50
2011,12,10,16,02,3.50
2011,12,10,16,03,3.50
2011,12,10,16,04,3.50
2011,12,10,16,05,3.50
2011,12,10,16,06,3.50
2011,12,10,16,07,3.50
2011,12,10,16,08,3.50
2011,12,10,16,09,3.50
2011,12,10,16,10,3.50
2011,12,10,16,11,3.40
2011,12,10,16,12,3.40
2011,12,10,16,13,3.40
2011,12,10,16,14,3.40
2011,12,10,16,15,3.40
2011,12,10,16,16,3.40
2011,12,10,16,17,3.40
2011,12,10,16,18,3.50
2011,12,10,16,19,3.50
2011,12,10,16,20,3.50
2011,12,10,16,21,3.50
2011,12,10,16,22,3.50
2011,12,10,16,23,3.50
2011,12,10,16,24,3.40
2011,12,10,16,25,3.40
2011,12,10,16,26,3.40
2011,12,10,16,27,3.50
2011,12,10,16,28,3.40
2011,12,10,16,29,3.40
2011,12,10,16,30,3.40
2011,12,10,16,31,3.40
2011,12,10,16,32,3.40
2011,12,10,16,33,3.40
2011,12,10,16,34,3.40
2011,12,10,16,35,3.30
2011,12,10,16,36,3.30
2011,12,10,16,37,3.30
2011,12,10,16,38,3.30
2011,12,10,16,39,3.30
2011,12,10,16,40,3.30
2011,12,10,16,41,3.30
2011,12,10,16,42,3.30
2011,12,10,16,43,3.20
2011,12,10,16,44,3.20
2011,12,10,16,45,3.20
2011,12,10,16,46,3.20
2011,12,10,16,47,3.20
2011,12,10,16,48,3.20
2011,12,10,16,49,3.20
2011,12,10,16,50,3.20
2011,12,10,16,51,3.20
2011,12,10,16,52,3.10
2011,12,10,16,53,3.10
2011,12,10,16,54,3.10
2011,12,10,16,55,3.10
2011,12,10,16,56,3.10
2011,12,10,16,57,3.10
2011,12,10,16,58,3.10
2011,12,10,16,59,3.10
2011,12,10,17,00,3.10
2011,12,10,17,01,3.10
2011,12,10,17,02,3.10
2011,12,10,17,03,3.00
2011,12,10,17,04,3.00
2011,12,10,17,05,3.00
2011,12,10,17,06,3.00
2011,12,10,17,07,3.00
2011,12,10,17,08,3.00
2011,12,10,17,09,3.00
2011,12,10,17,10,3.00
2011,12,10,17,11,3.00
2011,12,10,17,12,3.00
2011,12,10,17,13,3.10
2011,12,10,17,14,3.10
2011,12,10,17,15,3.10
2011,12,10,17,16,3.10
2011,12,10,17,17,3.10
2011,12,10,17,18,3.10
2011,12,10,17,19,3.10
2011,12,10,17,20,3.10
2011,12,10,17,21,3.20
2011,12,10,17,22,3.20
2011,12,10,17,23,3.20
2011,12,10,17,24,3.20
2011,12,10,17,25,3.20
2011,12,10,17,26,3.20
2011,12,10,17,27,3.20
2011,12,10,17,28,3.20
2011,12,10,17,29,3.20
2011,12,10,17,30,3.20
2011,12,10,17,31,3.20
2011,12,10,17,32,3.20
2011,12,10,17,33,3.20
2011,12,10,17,34,3.20
2011,12,10,17,35,3.20
2011,12,10,17,36,3.20
2011,12,10,17,37,3.20
2011,12,10,17,38,3.20
2011,12,10,17,39,3.20
2011,12,10,17,40,3.20
2011,12,10,17,41,3.10
2011,12,10,17,42,3.10
2011,12,10,17,43,3.10
2011,12,10,17,44,3.10
2011,12,10,17,45,3.10
2011,12,10,17,46,3.10
2011,12,10,17,47,3.10
2011,12,10,17,48,3.10
2011,12,10,17,49,3.10
2011,12,10,17,50,3.10
2011,12,10,17,51,3.10
2011,12,10,17,52,3.10
2011,12,10,17,53,3.00
2011,12,10,17,54,3.00
2011,12,10,17,55,3.00
2011,12,10,17,56,3.00
2011,12,10,17,57,3.00
2011,12,10,17,58,3.00
2011,12,10,17,59,2.90
2011,12,10,18,00,2.90
2011,12,10,18,01,2.90
2011,12,10,18,02,2.90
2011,12,10,18,03,2.90
2011,12,10,18,04,2.90
2011,12,10,18,05,2.90
2011,12,10,18,06,2.90
2011,12,10,18,07,2.90
2011,12,10,18,08,2.90
2011,12,10,18,09,2.90